Regional Weather Roundup
Issued by NWS

Home | Current Version | Previous Version | Text Only | Print | Product List | Glossary On
Versions: 1 2 3 4 5 6 7 8 9 10 11 12 13 14 15 16 17 18 19 20 21 22 23 24 25 26 27 28 29 30 31 32 33 34 35 36 37 38 39 40 41 42 43 44 45 46 47 48 49 50
000
ASUS44 KBMX 211410
RWRAL

ALABAMA REGIONAL WEATHER ROUNDUP
NATIONAL WEATHER SERVICE BIRMINGHAM AL
800 AM CST TUE NOV 21 2017

NOTE: "FAIR" INDICATES FEW OR NO CLOUDS BELOW 12,000 FEET
WITH NO SIGNIFICANT WEATHER AND/OR OBSTRUCTIONS TO VISIBILITY.

THE REMARK "TC" DENOTES TEMPERATURE IN DEGREES CELSIUS.

ALZ001>011-014-016>018-020-211500-
NORTH ALABAMA

CITY           SKY/WX    TMP DP  RH WIND       PRES   REMARKS
MUSCLE SHOALS  SUNNY     39  32  76 E3        30.10S
HUNTSVILLE     CLOUDY    44  38  79 CALM      30.09S
DECATUR        CLOUDY    40  37  89 N3        30.10S
HALEYVILLE     FAIR      43  36  76 S7        30.09S
GADSDEN        MOSUNNY   36  36 100 CALM      30.13R
$$

ALZ012-013-022-023-030>036-040>044-211500-
WEST CENTRAL ALABAMA

CITY           SKY/WX    TMP DP  RH WIND       PRES   REMARKS
TUSCALOOSA     SUNNY     37  36  96 CALM      30.11R
DEMOPOLIS        N/A     38  38 100 CALM      30.09S
$$

ALZ015-024>026-033>036-041>044-211500-
CENTRAL ALABAMA

CITY           SKY/WX    TMP DP  RH WIND       PRES   REMARKS
BIRMINGHAM     PTSUNNY   45  40  82 CALM      30.11S
MONTGOMERY     CLOUDY    47  42  83 E3        30.11S
SHELBY CO ARPT CLOUDY    44  40  85 CALM      30.09S
MAXWELL AFB    CLOUDY    46  43  89 NE3       30.09S
GREENVILLE     FAIR      50  42  74 E3        30.07F
SELMA          FAIR      43  41  93 CALM      30.09S
PRATTVILLE     FAIR      43  42  95 CALM      30.10S
BESSEMER       FAIR      46  37  71 E6        30.09S
TALLADEGA      PTSUNNY   43  39  88 CALM      30.12R
PELL CITY      PTSUNNY   41  41 100 CALM      30.12S
MARION         FAIR      35  35  99 CALM      30.09R
SYLACAUGA      PTSUNNY   48  47  97 CALM      30.11R
$$

ALZ019-021-028-029-037-038-045>048-211500-
EAST CENTRAL ALABAMA

CITY           SKY/WX    TMP DP  RH WIND       PRES   REMARKS
ANNISTON       CLOUDY    48  40  73 NE7       30.12R
ALEXANDER CITY CLOUDY    47  43  86 CALM      30.11R
AUBURN         PTSUNNY   51  46  83 E7        30.11F
$$

ALZ051>064-211500-
SOUTHWEST ALABAMA

CITY           SKY/WX    TMP DP  RH WIND       PRES   REMARKS
MOBILE         CLOUDY    46  41  82 E5        30.07R
BROOKLEY FIELD PTSUNNY   46  44  93 NW7       30.09R
EVERGREEN      CLOUDY    44  41  89 CALM      30.09R
$$

ALZ049-050-065>069-211500-
SOUTHEAST ALABAMA

CITY           SKY/WX    TMP DP  RH WIND       PRES   REMARKS
DOTHAN         PTSUNNY   53  49  86 NE5       30.11F
OZARK          CLOUDY    50  45  83 NE7       30.08S
TROY           CLOUDY    48  45  89 E3        30.09F
EUFAULA        FAIR      52  47  83 CALM      30.08F
$$



USA.gov is the U.S. government's official web portal to all federal, state and local government web resources and services.